Rallye Monte Carlo 2015 : journée 1.







Rallye Monte Carlo 2015 journée 1
Rallye Monte Carlo 2015 journée 1 : les deux Seb sont devant. Crédit : twitter

Vers un duel Loeb Ogier ?

La 83ème édition du Rallye Monte Carlo 2015 ouvre, le jeudi 22 janvier, la saison du Championnat du Monde des Rallyes (WRC) par une courte première journée de 40 km chronométrés, répartie en deux épreuves spéciales (ES), entre Monaco et Gap.

header-advert

Sur une route piégeuse (asphalte humide avec des passages neige/glace), diffusée en direct sur l’Equipe 21, l’ES1 (Entrevaux – Rouaine : 21,31 km) a vue Sébastien Loeb (DS3 WRC) pour son retour (ponctuel) en rallye, réaliser un petit exploit en signant le scracht avec 22 secondes d’avances sur Ott Tanak (Fiesta WRC) et 30.9 sur le double Champion du Monde en titre Sébastien Ogier (Polo R WRC). Surpris au point stop, Sébastien Loeb a indiqué :

La spéciale était complètement glacée. J’ai dit à Daniel que j’étais complètement arrêté à trois kilomètres de l’arrivée mais on dirait que ce n’était pas trop mal, je suis content de ce chrono.

Sébastien Loeb MC 2015 ES1
Sébastien Loeb à l’arrivée de l’ES1 – Crédit : DR.

L’ES 2 (Norante – Digne-les-Bains : 19,68 km) offre aux pilotes le mythique Col du Corbin avant une descente sur Digne. Des conditions de routes plus classique (asphalte) qui favorisent les premiers (la route devenant vite salle au fils des passages). Dans ces conditions Sébastien Ogier signe le scratch, devant son coéquipier Jari-Matti Latvala. Sébastien Loeb est troisième à 17.6 secondes. Sortie de route pour Bryan Bouffier sur Ford Fiesta WRC. Pourtant bien parti il se fait piéger sur une bosse, tire droit et sort de la route, percutant un arbre.

Monte Carlo 2015 : Fiesta WRC Bouffier
Sortie de route dans l’ES2 pour Bryan Bouffier sur Fiesta WRC. Crédit : twitter

Et pendant ce temps là, en RC5 …

Dans la catégorie RC5 composée des petites autos homologuées en R1 et N2, Christopher Garcin (Suzuki Swift N2) mène le bal, devant Stéphane Brunier (#117) et Vivian Cug (#118) tous deux sur Renault Twingo R1. Suivent David Berard (DS3 R1) et Stéphane Gragnola (Twingo R1).

Départ de Monaco avec Stéphane Brunier
Départ de Monaco avec Stéphane Brunier (#117), comme si vous y étiez

Rallye Monte Carlo 2015 : vidéo journée 1.

Monte Carlo 2015 : classement après journée 1.

POS PILOTE ELIGIBILITÉ TEMPS DIFF PRÉC. DIFF 1ER
1. 4 FRAS. LOEB M 30:08.2
2. 1 FRAS. OGIER M 30:21.5 +13.3 +13.3
3. 2 FINJ. LATVALA M 30:44.3 +22.8 +36.1
4. 6 ESTO. TANAK M 30:46.8 +2.5 +38.6
5. 5 GBRE. EVANS M 30:55.6 +8.8 +47.4
6. 3 GBRK. MEEKE M 31:08.0 +12.4 +59.8
7. 9 NORA. MIKKELSEN 31:08.1 +0.1 +59.9
8. 7 BELT. NEUVILLE M 31:15.0 +6.9 +1:06.8
9. 12 NORM. OSTBERG 31:16.9 +1.9 +1:08.7
10. 14 NORH. SOLBERG 31:25.8 +8.9 +1:17.6
11. 21 CZEM. PROKOP T 31:27.1 +1.3 +1:18.9
12. 8 ESPD. SORDO M 31:33.1 +6.0 +1:24.9
13. 32 FRAS. LEFEBVRE WRC2 32:10.4 +37.3 +2:02.2
14. 37 ITAL. BERTELLI T 32:30.0 +19.6 +2:21.8
15. 43 SVKM. KOCI WRC2 32:32.9 +2.9 +2:24.7
16. 17 UKRY. PROTASOV 32:35.0 +2.1 +2:26.8
17. 33 FRAQ. GIORDANO WRC2 32:47.7 +12.7 +2:39.5
18. 25 CHEO. BURRI 33:09.4 +21.7 +3:01.2
19. 34 IRLC. BREEN WRC2 33:16.3 +6.9 +3:08.1
20. 36 FRAJ. MAURIN WRC2 33:17.8 +1.5 +3:09.6
21. 41 DEUA. KREMER WRC2 33:25.4 +7.6 +3:17.2
22. 27 FRAF. LO FIEGO 33:29.7 +4.3 +3:21.5
23. 42 ZAFH. LATEGAN WRC2 33:32.6 +2.9 +3:24.4
24. 24 ITAM. GAMBA 33:58.2 +25.6 +3:50.0
25. 40 CHEJ. HIRSCHI WRC2 34:01.1 +2.9 +3:52.9
26. 73 FRAM. MARGAILLAN 34:04.6 +3.5 +3:56.4
27. 72 FRAN. LATIL 34:29.0 +24.4 +4:20.8
28. 19 FRAJ. RAOUX 34:36.6 +7.6 +4:28.4
29. 60 FRAQ. GILBERT WRC3 34:47.1 +10.5 +4:38.9
30. 58 FRAT. FOLB WRC3 34:53.7 +6.6 +4:45.5
31. 52 ITAS. TEMPESTINI WRC3 35:08.3 +14.6 +5:00.1
32. 53 NORO. VEIBY WRC3 35:50.5 +42.2 +5:42.3
33. 20 FRAF. DELECOUR RGT 35:57.8 +7.3 +5:49.6
34. 76 GBRE. BOLAND WRC 2 36:06.1 +8.3 +5:57.9
35. 26 ITAF. RE 36:09.7 +3.6 +6:01.5
36. 39 FRAE. CAMILLI WRC2 36:19.9 +10.2 +6:11.7
37. 28 ITAM. SILVA 36:22.6 +2.7 +6:14.4
38. 82 FRAR. DOLCE 36:30.4 +7.8 +6:22.2
39. 75 AUTJ. KEFERBOCK 36:51.6 +21.2 +6:43.4
40. 61 DEUC. RIEDEMANN WRC3 36:52.7 +1.1 +6:44.5
41. 97 FINM. VATANEN 36:53.0 +0.3 +6:44.8
42. 54 IRLD. MC KENNA WRC3 36:57.1 +4.1 +6:48.9
43. 74 FRAC. CARRET 37:05.8 +8.7 +6:57.6
44. 85 FRAC. ARNAUD 37:08.3 +2.5 +7:00.1
45. 80 FRAF. SIAS 37:19.3 +11.0 +7:11.1
46. 102 CHEC. ALTHAUS 37:36.6 +17.3 +7:28.4
47. 23 FRAR. DUMAS RGT 37:40.9 +4.3 +7:32.7
48. 99 FRAJ. TAORMINA 37:41.2 +0.3 +7:33.0
49. 29 CHEL. VUKASOVIC 37:46.3 +5.1 +7:38.1
50. 56 ITAA. RE WRC3 37:55.2 +8.9 +7:47.0
51. 106 FRAF. JOLY 38:10.9 +15.7 +8:02.7
52. 93 FRAN. RESSEGAIRE 38:42.0 +31.1 +8:33.8
53. 81 FRAL. VIALLE 38:50.7 +8.7 +8:42.5
54. 91 FRAY. GALLEANO 38:54.0 +3.3 +8:45.8
55. 86 DEUW. IHLE 38:59.2 +5.2 +8:51.0
56. 119 FRAC. GARCIN   39:02.2 +3.0 +8:54.0
57. 59 HUNK. LUKACS WRC3 39:09.4 +7.2 +9:01.2
58. 22 BELM. DUEZ RGT 39:26.5 +17.1 +9:18.3
59. 103 FRAF. PICCHIONI 39:45.2 +18.7 +9:37.0
60. 57 FRAY. ROSSEL WRC3 39:48.7 +3.5 +9:40.5
61. 100 FRAS. METIFFIOT 40:03.1 +14.4 +9:54.9
62. 114 CZEM. RADA 40:18.7 +15.6 +10:10.5
63. 94 FRAP. BAFFOUN 40:33.8 +15.1 +10:25.6
64. 84 FRAS. CONSANI WRC 3 40:34.1 +0.3 +10:25.9
65. 71 ITAA. MARCHETTI 40:35.3 +1.2 +10:27.1
66. 16 POLR. KUBICA 40:38.5 +3.2 +10:30.3
67. 78 FRAA. FOULON WRC 2 41:01.5 +23.0 +10:53.3
68. 107 FRAL. JAUSSAUD 41:18.0 +16.5 +11:09.8
69. 88 GRCN. PAVLIDIS 41:23.9 +5.9 +11:15.7
70. 105 FRAJ. CRETIEN 41:26.4 +2.5 +11:18.2
71. 117 FRAS. BRUNIER   41:27.0 +0.6 +11:18.8
72. 112 DEUJ. MEINZER 41:29.5 +2.5 +11:21.3
73. 104 FRAP. TANCI 41:59.1 +29.6 +11:50.9
74. 96 GRCD. DRIVAKOS 42:00.3 +1.2 +11:52.1
75. 98 CHEC. CORNUZ 42:23.9 +23.6 +12:15.7
76. 77 ITAC. COVI 42:32.8 +8.9 +12:24.6
77. 51 FRAC. DALMASSO WRC3 42:49.3 +16.5 +12:41.1
78. 118 FRAV. CUGUILLERE   42:51.2 +1.9 +12:43.0
79. 79 FRAJ. MONDET 42:55.9 +4.7 +12:47.7
80. 92 ITAS. MARCHETTI 42:57.4 +1.5 +12:49.2
81. 38 ITAM. VALLARIO WRC2 43:23.6 +26.2 +13:15.4
82. 115 FRAD. BERARD   43:23.9 +0.3 +13:15.7
83. 109 ITAL. FABIANI 43:26.4 +2.5 +13:18.2
84. 111 FRAS. COUDERT 43:38.9 +12.5 +13:30.7
85. 101 ISRA. COREANU 45:10.0 +1:31.1 +15:01.8
86. 108 MCOM. DESSI 45:58.7 +48.7 +15:50.5
87. 113 FRAC. BENSIMON 46:01.1 +2.4 +15:52.9
88. 116 FRAS. GRAGNOLA 47:04.8 +1:03.7 +16:56.6
89. 95 CHEM. BRERA 49:49.1 +2:44.3 +19:40.9
90. 18 FRAS. CHARDONNET 51:57.7 +2:08.6 +21:49.5
91. 89 ITAG. DI LUIGI 56:44.8 +4:47.1 +26:36.6
92. 87 CHEL. REUCHE 1:07:44.5 +10:59.7 +37:36.3

Vous pouvez suivre les temps en live sur le site officiel du WRC.






A propos Jean-Michel Marcelin 2305 Articles
Créateur du site PILOTE-DE-COURSE.COM. Rédacteur et pilote amateur en rallye. Passionné de sport auto en général, Rallye, Formule 1, RallyCross, Rallye-Raid, Drift, Sim Racing et bien d'autres ... ainsi que du spectacle et du Fun à l'américaine.

1 Rétrolien / Ping

  1. Rallye Monte-Carlo 2015. - Pilote de Course

Laisser un commentaire

Votre adresse de messagerie ne sera pas publiée.


*


Ce site utilise Akismet pour réduire les indésirables. En savoir plus sur comment les données de vos commentaires sont utilisées.